Regional Weather Roundup
Issued by NWS Midland/Odessa, TX

Skip options and go directly to product.
Home | Oldest Version | Previous Version | Current Version | All | Text Only | Save Text | Print | Product List | Glossary On

Skip product version selection by date and time.   
679
ASUS44 KMAF 220202
RWRMAF
MIDLAND AREA WEATHER ROUNDUP
NATIONAL WEATHER SERVICE MIDLAND TX
900 PM CDT TUE OCT 21 2014

...IN SOUTHWEST TEXAS AND SOUTHEAST NEW MEXICO...

CITY           SKY/WX    TMP DP  RH WIND       PRES   REMARKS
ALPINE         MOCLDY    60  56  86 S5        30.15S
ANDREWS        CLOUDY    65  55  71 S6        30.07S
ARTESIA        NOT AVBL
BIG SPRING     CLOUDY    70  53  53 E6        30.08R
CARLSBAD       CLOUDY    66  60  81 SE8       30.05R
DRYDEN           N/A     66  65  96 CALM      30.03R
FORT STOCKTON  CLOUDY    64  61  90 SE10      30.06R
GUAD PASS      MOCLDY    55  55 100 NE20      30.13R FOG
HOBBS          CLOUDY    61  59  94 CALM      30.09R
MARFA          PTCLDY    57  55  94 E6        30.13S
MIDLAND AIRPK  CLOUDY    73  54  51 SE6       30.06S
MIDLAND INTL   CLOUDY    71  57  61 S6        30.05S
ODESSA         CLOUDY    67  61  81 CALM      30.07R
PECOS          CLOUDY    65  61  87 E8        30.03R
PRESIDIO       FAIR      66  60  80 NE8       30.01R
SEMINOLE       CLOUDY    62  60  93 CALM      30.09R
SNYDER         PTCLDY    67  51  57 SE8       30.07R
WINK           MOCLDY    65  63  93 SE6       30.04R
$$
...OTHER STATIONS IN TEXAS...

CITY           SKY/WX    TMP DP  RH WIND       PRES   REMARKS
ABILENE        MOCLDY    69  51  52 S7        30.06R
AMARILLO       CLEAR     63  48  58 S10       30.07R
AUSTIN         MOCLDY    61  53  75 CALM      30.02S
BROWNSVILLE    CLOUDY    78  73  84 NE8       29.93R
CORPUS CHRISTI MOCLDY    75  67  76 E9        29.98R
DALLAS FTW     PTCLDY    70  58  65 SE6       30.05R
DEL RIO        LGT RAIN  71  67  87 NW6       29.99R
EL PASO        PTCLDY    65  53  65 E8        30.01S
HOUSTON INT    PTCLDY    67  61  81 CALM      30.02R
LUBBOCK        CLOUDY    68  52  56 S9        30.07S
SAN ANGELO     CLOUDY    71  53  52 E6        30.04R
SAN ANTONIO    PTCLDY    73  49  42 NE6       30.02R
WACO           PTCLDY    68  57  68 E6        30.05R
WICHITA FALLS  NOT AVBL
$$
...OTHER LOCATIONS IN NEW MEXICO...

CITY           SKY/WX    TMP DP  RH WIND       PRES   REMARKS
ALAMAGORDO     NOT AVBL
ALBUQUERQUE    PTCLDY    61  47  59 S6        30.08R
CANNON AFB     MOCLDY    58  57  95 SE3       30.10R
CLOVIS         CLOUDY    61  54  77 S7        30.12S
HOLLOMAN AFB   PTCLDY    62  53  72 S7        30.03R
ROSWELL        MOCLDY    61  57  87 SE6       30.07R
RUIDOSO        MOCLDY    50  50 100 SE8       30.18R
SANTA FE       PTCLDY    53  45  74 SE7       30.12R
TRUTH OR CONSE MOCLDY    64  52  64 NW6       30.05R
TUCUMCARI      LGT RAIN  60  56  86 S8        30.07R
$$

USA.gov is the U.S. government's official web portal to all federal, state and local government web resources and services.